SKYSAT-C9

Last updated on Thu Jul 03 2025 00:02:30 GMT+0000 (Coordinated Universal Time)

1 42989U 17068C 25183.34834177 .00004596 00000+0 14216-3 0 9990 2 42989 97.3996 312.9057 0009103 349.5810 10.5243 15.33970495429025
UTC large
Height (km)
Speed (km/s)
/
Latitude / Longitude
Inclination (degrees)
Orbital Period (minutes)
Azimuth
Elevation
Range (km)
Doppler Factor

Next 0 passes for location: London (51.5072 / 0.1276)

Sorry there are no passes over London.